Location: Unspecified
(0.0000°N, 0.0000°E)
Time: 18:48:34
(UTC+00:00)

Tiros 1 despin weight - Pass Details

Date: 27 November 2019
Orbit: 594 x 642 km, 48.2° (Epoch: 05 December)

Event Time Altitude Azimuth Distance (km) Brightness Sun altitude
Rises 18:15:57 0° 332° (NNW) 2,853 ? -6.6°
Reaches altitude 10° 18:18:18 10° 339° (NNW) 1,960 ? -7.1°
Maximum altitude 18:22:36 44° 51° (NE) 858 ? -8.1°
Drops below altitude 10° 18:26:58 10° 123° (ESE) 1,997 ? -9.2°
Sets 18:29:23 0° 130° (SE) 2,913 ? -9.7°
